Change the Weather History Date:

Wednesday, September 5, 2012

  Actual Average Record
Temperature  
Mean Temperature 68 °F -  
Max Temperature 78 °F 75 °F 91 °F (1948)
Min Temperature 59 °F 53 °F 35 °F (2003)
Cooling Degree Days 4    
Growing Degree Days 18 (Base 50)    
Moisture  
Dew Point 62 °F    
Average Humidity 76    
Maximum Humidity 91    
Minimum Humidity 56    
Precipitation  
Precipitation 0.00 in - - ()
Sea Level Pressure  
Sea Level Pressure 29.81 in    
Wind  
Wind Speed 5 mph (SW)    
Max Wind Speed 15 mph    
Max Gust Speed 18 mph    
Visibility 9 miles    
Events Fog    
Averages and records for this station are not official NWS values.
T = Trace of Precipitation, MM = Missing Value Source: NWS Daily Summary

Daily Weather History Graph

Daily Weather History Graph

Search for Another Location

Airport or City:

Trip Planner

Search our weather history database for the weather conditions in past years. The results will help you decide how hot, cold, wet, or windy it might be!

Date:

Astronomy

Sep. 05, 2012 Rise Set
Actual Time 7:14 AM EDT 8:13 PM EDT
Civil Twilight 6:44 AM EDT 8:42 PM EDT
Nautical Twilight 6:09 AM EDT 9:17 PM EDT
Astronomical Twilight 5:32 AM EDT 9:54 PM EDT
Moon 10:29 PM EDT (9/5) 12:30 PM EDT (9/5)
Length of Visible Light 13h 58m
Length of Day
12h 59m
Waning Gibbous, 76% of the Moon is Illuminated
Sep 5
Waning Gibbous
Sep 8
Last Quarter
Sep 15
New
Sep 22
First Quarter
Sep 29
Full

Hourly Weather History & Observations

Time (EDT) Temp. Dew Point Humidity Pressure Visibility Wind Dir Wind Speed Gust Speed Precip Events Conditions
12:14 AM 64.4 °F 61.7 °F 91% 29.86 in 2.0 mi Calm Calm - N/A   Clear
12:35 AM 65.7 °F 63.0 °F 91% 29.86 in 1.5 mi Calm Calm - N/A   Mist
12:55 AM 67.5 °F 64.8 °F 91% 29.89 in 4.0 mi West 8.1 mph - N/A   Scattered Clouds
1:15 AM 69.4 °F 66.6 °F 91% 29.87 in 5.0 mi WSW 5.8 mph - N/A   Mostly Cloudy
1:35 AM 69.4 °F 66.6 °F 91% 29.86 in 7.0 mi SW 5.8 mph - N/A   Scattered Clouds
1:55 AM 69.4 °F 66.4 °F 90% 29.84 in 7.0 mi South 8.1 mph - N/A   Clear
2:15 AM 69.6 °F 66.4 °F 89% 29.83 in 7.0 mi SSE 5.8 mph - N/A   Clear
2:35 AM 69.1 °F 65.1 °F 87% 29.83 in 10.0 mi South 9.2 mph - N/A   Clear
2:55 AM 69.4 °F 60.4 °F 73% 29.83 in 10.0 mi South 8.1 mph - N/A   Clear
3:15 AM 70.7 °F 61.0 °F 71% 29.83 in 10.0 mi SSW 5.8 mph - N/A   Clear
3:34 AM 69.4 °F 60.8 °F 74% 29.84 in 10.0 mi West 3.5 mph - N/A   Clear
3:55 AM 70.7 °F 62.1 °F 74% 29.84 in 10.0 mi SW 4.6 mph - N/A   Scattered Clouds
4:15 AM 69.3 °F 60.8 °F 74% 29.83 in 10.0 mi Calm Calm - N/A   Clear
4:34 AM 68.2 °F 62.1 °F 81% 29.83 in 10.0 mi SE 3.5 mph - N/A   Clear
4:55 AM 68.2 °F 62.6 °F 82% 29.83 in 10.0 mi Calm Calm - N/A   Clear
5:15 AM 68.2 °F 61.9 °F 80% 29.83 in 10.0 mi North 4.6 mph - N/A   Clear
5:34 AM 65.7 °F 60.8 °F 84% 29.82 in 10.0 mi East 4.6 mph - N/A   Clear
5:55 AM 65.7 °F 60.8 °F 84% 29.82 in 10.0 mi SE 6.9 mph - N/A   Clear
6:15 AM 68.2 °F 62.1 °F 81% 29.82 in 10.0 mi SSE 3.5 mph - N/A   Clear
6:34 AM 64.4 °F 59.0 °F 83% 29.82 in 10.0 mi Calm Calm - N/A   Clear
6:55 AM 63.1 °F 59.0 °F 86% 29.82 in 10.0 mi Calm Calm - N/A   Clear
7:15 AM 61.5 °F 57.7 °F 87% 29.82 in 10.0 mi Calm Calm - N/A   Clear
7:34 AM 60.8 °F 57.2 °F 88% 29.83 in 10.0 mi SW 4.6 mph - N/A   Clear
7:55 AM 65.7 °F 61.0 °F 85% 29.84 in 10.0 mi NW 3.5 mph - N/A   Clear
8:14 AM 68.2 °F 63.3 °F 84% 29.84 in 10.0 mi West 3.5 mph - N/A   Clear
8:35 AM 68.2 °F 61.9 °F 80% 29.84 in 10.0 mi West 4.6 mph - N/A   Clear
8:54 AM 71.8 °F 64.4 °F 77% 29.84 in 10.0 mi West 6.9 mph - N/A   Clear
9:15 AM 73.4 °F 67.1 °F 81% 29.84 in 10.0 mi SW 8.1 mph - N/A   Mostly Cloudy
9:35 AM 73.4 °F 66.9 °F 80% 29.84 in 10.0 mi SSW 6.9 mph - N/A   Scattered Clouds
9:54 AM 73.8 °F 65.1 °F 74% 29.83 in 10.0 mi SW 6.9 mph - N/A   Clear
10:15 AM 73.4 °F 62.4 °F 68% 29.83 in 10.0 mi SW 8.1 mph - N/A   Clear
10:35 AM 73.4 °F 62.6 °F 69% 29.81 in 10.0 mi SSW 5.8 mph - N/A   Clear
11:15 AM 74.7 °F 62.2 °F 65% 29.81 in 10.0 mi SW 8.1 mph - N/A   Clear
11:35 AM 73.9 °F 61.7 °F 65% 29.81 in 10.0 mi SW 5.8 mph - N/A   Clear
11:55 AM 75.7 °F 62.1 °F 62% 29.81 in 10.0 mi SW 5.8 mph - N/A   Clear
12:15 PM 75.7 °F 62.1 °F 62% 29.79 in 10.0 mi SW 3.5 mph - N/A   Clear
12:35 PM 75.7 °F 62.8 °F 64% 29.79 in 10.0 mi SW 4.6 mph - N/A   Clear
12:55 PM 75.7 °F 63.5 °F 66% 29.78 in 10.0 mi SSW 4.6 mph - N/A   Clear
1:15 PM 75.7 °F 63.0 °F 64% 29.78 in 10.0 mi West 4.6 mph - N/A   Clear
1:34 PM 78.3 °F 64.2 °F 62% 29.77 in 10.0 mi SSE 8.1 mph - N/A   Clear
1:55 PM 78.3 °F 62.8 °F 59% 29.77 in 10.0 mi SW 9.2 mph - N/A   Clear
2:15 PM 78.3 °F 62.6 °F 58% 29.77 in 10.0 mi WSW 9.2 mph - N/A   Clear
2:34 PM 78.3 °F 62.2 °F 58% 29.77 in 10.0 mi WSW 9.2 mph - N/A   Clear
2:55 PM 78.3 °F 61.5 °F 56% 29.76 in 10.0 mi WSW 9.2 mph - N/A   Clear
3:15 PM 78.3 °F 61.9 °F 57% 29.76 in 10.0 mi WSW 10.4 mph - N/A   Clear
3:34 PM 77.7 °F 62.4 °F 59% 29.77 in 10.0 mi West 10.4 mph - N/A   Clear
3:55 PM 75.7 °F 62.4 °F 63% 29.77 in 10.0 mi WSW 13.8 mph - N/A   Clear
4:15 PM 75.7 °F 63.0 °F 64% 29.77 in 10.0 mi WSW 15.0 mph 18.4 mph N/A   Clear
4:34 PM 74.8 °F 63.0 °F 66% 29.77 in 10.0 mi West 10.4 mph 18.4 mph N/A   Clear
4:55 PM 73.4 °F 61.9 °F 67% 29.78 in 10.0 mi West 6.9 mph - N/A   Clear
5:15 PM 73.8 °F 62.8 °F 68% 29.78 in 10.0 mi WSW 13.8 mph - N/A   Clear
5:35 PM 73.4 °F 63.5 °F 71% 29.78 in 10.0 mi WNW 8.1 mph - N/A   Clear
5:55 PM 73.4 °F 63.9 °F 72% 29.79 in 10.0 mi West 9.2 mph 17.3 mph N/A   Clear
6:14 PM 73.4 °F 63.5 °F 71% 29.79 in 10.0 mi West 6.9 mph - N/A   Clear
6:35 PM 73.4 °F 63.3 °F 71% 29.79 in 10.0 mi West 5.8 mph - N/A   Clear
6:55 PM 73.4 °F 62.4 °F 68% 29.79 in 10.0 mi West 5.8 mph - N/A   Clear
7:14 PM 73.4 °F 63.5 °F 71% 29.80 in 10.0 mi WSW 6.9 mph - N/A   Clear
7:35 PM 73.4 °F 64.0 °F 72% 29.80 in 10.0 mi West 3.5 mph - N/A   Clear
8:15 PM 70.2 °F 62.1 °F 75% 29.80 in 10.0 mi West 4.6 mph - N/A   Clear
8:35 PM 68.4 °F 61.9 °F 80% 29.81 in 10.0 mi Calm Calm - N/A   Clear
8:55 PM 66.2 °F 61.5 °F 85% 29.81 in 10.0 mi Calm Calm - N/A   Clear
9:15 PM 63.1 °F 59.4 °F 87% 29.82 in 10.0 mi Calm Calm - N/A   Clear
9:35 PM 63.1 °F 59.9 °F 89% 29.82 in 10.0 mi Calm Calm - N/A   Clear
9:54 PM 60.6 °F 57.2 °F 88% 29.82 in 1.8 mi Calm Calm - N/A   Mist
10:15 PM 61.3 °F 58.1 °F 89% 29.82 in 10.0 mi Calm Calm - N/A   Clear
10:35 PM 60.8 °F 58.1 °F 91% 29.82 in 10.0 mi Calm Calm - N/A   Clear
10:54 PM 59.7 °F 56.7 °F 90% 29.82 in 1.8 mi Calm Calm - N/A   Mist
11:15 PM 59.4 °F 56.5 °F 90% 29.82 in 7.0 mi Calm Calm - N/A   Clear
11:35 PM 60.1 °F 57.2 °F 90% 29.82 in 0.5 mi Calm Calm - N/A Fog Fog
11:55 PM 60.8 °F 57.7 °F 90% 29.82 in 10.0 mi Calm Calm - N/A   Clear